Location: SBMNH
(34.4407°N, 119.7157°W)
Time: 21:48:17
(UTC-07:00)

Tiangong - Pass Details

Date: 16 August 2022
Orbit: 382 x 386 km, 41.5° (Epoch: 05 October)

Event Time Altitude Azimuth Distance (km) Brightness Sun altitude
Rises 22:30:15 0° 285° (WNW) 2,260 2.6 -30.0°
Reaches altitude 10° 22:32:36 10° 300° (WNW) 1,410 1.5 -30.3°
Enters shadow 22:32:45 11° 302° (WNW) 1,363 1.5 -30.3°
